Regional Weather Roundup
Issued by NWS

Home | Current Version | Previous Version | Graphics & Text | Print | Product List | Glossary On
Versions: 1 2 3 4 5 6 7 8 9 10 11 12 13 14 15 16 17 18 19 20 21 22 23 24 25 26 27 28 29 30 31 32 33 34 35 36 37 38 39 40 41 42 43 44 45 46 47 48 49 50
000
ASUS44 KMEG 301100
RWRTN
TENNESSEE HOURLY STATE WEATHER ROUNDUP
NATIONAL WEATHER SERVICE MEMPHIS TN
600 AM CDT FRI SEP 30 2016

TNZ002-004-019-021-049-052-054-088>092-301200-
WEST TENNESSEE

CITY           SKY/WX    TMP DP  RH WIND       PRES   REMARKS
MEMPHIS INTL   CLOUDY    63  56  78 N7        30.10R
NWS MEMPHIS      N/A     60 N/A N/A MISG        N/A
JACKSON          N/A    N/A N/A N/A MISG      30.09S
DYERSBURG      CLOUDY   N/A N/A N/A MISG        N/A
UNION CITY     CLOUDY    57  57 100 CALM      30.08S
PARIS          CLOUDY    54  54 100 CALM      30.08S
LEXINGTON      CLOUDY    54  54 100 CALM      30.07F VSB 1/2
$$

TNZ008-025-027-028-033-062-065-066-301200-
NORTH MIDDLE TENNESSEE

CITY           SKY/WX    TMP DP  RH WIND       PRES   REMARKS
NASHVILLE      CLOUDY    55  53  93 CALM      30.05F
CLARKSVILLE    CLOUDY    56  54  93 W6        30.05S
SMYRNA         FOG       52  52 100 CALM      30.07S VSB 1/2
COOKEVILLE     CLOUDY    52  52 100 CALM      30.06S
CROSSVILLE     CLOUDY    48  48 100 NW5       30.07S FOG
$$

TNZ061-075-076-078-094-096-097-301200-
SOUTH MIDDLE TENNESSEE

CITY           SKY/WX    TMP DP  RH WIND       PRES   REMARKS
SHELBYVILLE    CLOUDY    52  52 100 CALM      30.08S VSB 0
$$

TNZ017-018-042-046-047-301200-
NORTHEAST TENNESSEE

CITY           SKY/WX    TMP DP  RH WIND       PRES   REMARKS
TRI CITIES     CLOUDY    56  53  90 NW5       30.02R
$$

TNZ012-013-036-069-073-074-301200-
CENTRAL EAST TENNESSEE

CITY           SKY/WX    TMP DP  RH WIND       PRES   REMARKS
KNOXVILLE      PTCLDY    51  47  86 W5        30.03R
OAK RIDGE      PTCLDY    48  45  89 CALM      30.06R
GATLINBURG     MOCLDY    54  48  82 CALM      30.03R
$$

TNZ083-085-099-301200-
SOUTHEAST TENNESSEE

CITY           SKY/WX    TMP DP  RH WIND       PRES   REMARKS
CHATTANOOGA    PTCLDY    52  48  86 N3        30.06R
$$

SKY/WX REPORTED AS FAIR MEANS FEW OR NO CLOUDS BELOW
12 THOUSAND FEET.





USA.gov is the U.S. government's official web portal to all federal, state and local government web resources and services.